Temp_Advection
nan nan nan nan nan nan nan nan nan nan nan nan nan nan nan nan nan nan nan nan nan nan nan nan nan nan nan nan nan nan nan nan nan nan nan nan nan nan nan nan nan nan
nan -1 -0 -0 -0 -1 -1 -0 -0 0 0 0 -0 -0 -0 0 0 0 -0 -0 0 -0 -1 -0 1 1 -1 -1 -0 1 0 -1 -1 -0 0 0 -0 -0 0 0 0 nan
nan -0 -0 -0 -0 -0 -0 -0 -0 -0 0 -0 -0 -0 -0 -0 0 -0 -0 -0 0 0 -0 -1 -0 1 -0 -1 -0 0 0 -1 -1 0 0 0 -0 -1 -0 0 1 nan
nan 0 -0 -0 -0 -0 -0 -0 -0 -0 -0 -0 -0 -0 -0 -0 0 0 0 -0 -0 -0 0 -0 -0 -0 -1 -0 0 0 -0 -0 -1 -0 0 0 -0 -1 -0 1 1 nan
nan 0 0 0 0 0 0 0 -0 -0 -0 -0 -0 -0 -0 -0 0 0 1 1 -0 -0 -1 -1 -0 -0 -1 -0 0 -0 -0 -0 -1 -0 0 0 0 -0 0 0 0 nan
nan 0 0 0 0 0 0 0 0 0 -0 -0 -0 -0 -0 -0 -0 -0 0 1 0 -0 -1 -1 -1 -0 -0 -0 0 0 0 -0 -0 0 0 -0 -0 -0 0 0 -0 nan
nan -0 0 0 0 0 -0 0 0 0 -0 -0 -0 -0 -0 -1 -0 -0 -0 -0 -0 -0 -1 -1 -1 0 1 0 0 0 0 -0 -0 0 0 -0 -0 0 -0 -0 -0 nan
nan -0 -0 -0 0 0 -0 -0 0 -0 -0 0 0 0 -0 -1 -1 -0 -0 -0 -1 -1 -1 -1 -1 0 1 0 -0 0 0 0 -0 -0 0 0 0 0 -0 -0 -0 nan
nan -0 -0 -0 -0 -0 -0 -0 -0 -0 -0 0 0 0 -0 -0 -0 -1 -0 -0 -1 -1 -1 -0 -1 -0 0 0 0 0 0 0 0 0 0 -0 -0 0 0 0 -0 nan
nan -0 -0 -0 -0 -0 -0 -0 -0 -0 -0 -0 -0 0 0 -0 -0 -0 -0 -0 -1 -1 -1 -1 -0 -0 -0 -0 0 0 -0 0 0 0 0 -0 -0 0 0 0 -0 nan
nan -0 -0 -0 -0 -0 -0 -0 -0 -0 0 -0 -0 -0 0 0 -0 -0 -0 -0 -0 -0 -1 -1 -0 -0 -0 -0 0 0 0 -0 -0 -0 -0 -0 0 0 1 0 -1 nan
nan -0 -0 -0 -0 -0 -0 -0 -0 -0 0 0 0 -0 0 0 -0 -0 -0 -1 -0 -0 -0 -1 -0 -0 -0 0 0 0 0 -0 -1 -1 -0 0 0 0 0 0 -0 nan
nan -0 -0 -0 -0 -0 -0 -0 -0 -0 -0 0 0 0 -0 -0 -0 -0 -0 -0 -1 -0 -0 -0 -0 -0 -0 0 0 0 0 -0 -0 -0 -0 -0 0 0 0 -0 -0 nan
nan -0 -0 -0 -0 -0 -0 -0 -0 -0 -0 0 0 0 0 0 0 -0 -0 -0 -0 -0 -0 -0 -0 -0 -0 0 0 1 0 -1 -0 -0 -0 -0 -1 -1 -0 -0 -1 nan
nan 0 0 0 -0 -0 -0 -0 -0 -0 -0 0 0 0 0 0 0 0 -0 -0 -0 -0 -0 -1 -0 -0 -0 0 0 0 -0 -0 -0 0 -0 -1 -1 -1 -1 -1 -0 nan
nan 0 0 0 0 0 -0 -0 -0 -0 -0 -0 -0 -0 0 0 0 0 0 -0 -0 -0 -0 -0 -0 -0 -0 -0 0 -0 -0 -0 0 0 -0 -1 -1 -1 -1 -0 -0 nan
nan 0 0 0 0 0 0 0 0 -0 -0 -0 0 0 0 0 0 0 0 0 0 0 0 -0 -0 -0 -0 -1 -0 0 -0 -0 0 -0 -0 -1 -1 -1 -0 -0 0 nan
nan 0 0 0 0 0 0 0 0 -0 -0 0 0 0 0 0 0 0 0 0 0 0 0 -0 -0 -0 -0 -1 -0 0 -0 -0 0 0 -0 -0 -0 -0 -0 -0 0 nan
nan 0 0 0 0 0 0 0 0 -0 -0 -0 0 0 0 0 0 0 0 0 -0 -0 -0 0 -0 -0 -0 -0 -1 -0 -0 0 0 0 -0 -1 -0 0 0 0 0 nan
nan 0 0 -0 -0 -0 -0 0 0 0 0 0 0 0 0 0 0 0 0 0 -0 -0 -0 -0 -0 -1 -0 -1 -1 -1 -0 0 0 0 -0 -1 -1 0 0 0 0 nan
nan 0 -0 -0 -0 -0 -0 -0 0 0 0 0 0 0 0 0 0 0 0 0 0 0 -0 -0 -1 -1 -0 -1 -1 -1 -0 -0 0 0 0 -0 -0 -0 0 0 0 nan
nan 0 0 0 0 -0 -0 -0 -0 0 0 0 0 0 0 0 0 0 0 0 0 0 0 0 -0 -0 -0 -0 -1 -1 -0 -0 -0 0 0 0 -0 -0 0 0 0 nan
nan 0 0 0 0 0 -0 -0 -0 -0 0 0 0 -0 0 0 0 0 0 0 0 0 0 0 0 0 -0 -0 -0 -1 -1 -0 -0 -0 0 0 0 0 0 0 0 nan
nan 0 0 0 0 0 0 -0 -0 -0 -0 0 -0 -0 -0 0 0 0 -0 -0 0 0 0 0 0 0 -0 -0 -0 -1 -1 -0 0 0 -0 -0 -0 -0 0 0 0 nan
nan -0 -0 -0 0 0 0 0 -0 -0 -0 -0 -0 -0 -0 0 0 0 -0 -0 -0 -0 0 0 0 0 0 0 0 -0 -0 -0 1 0 0 0 0 -0 -0 0 0 nan
nan nan nan nan nan nan nan nan nan nan nan nan nan nan nan nan nan nan nan nan nan nan nan nan nan nan nan nan nan nan nan nan nan nan nan nan nan nan nan nan nan nan
Wind_Speed
16 16 17 18 19 18 17 16 16 17 18 17 18 19 19 19 20 23 24 27 29 31 31 31 30 30 29 30 32 32 32 32 32 32 35 37 36 35 37 37 37 38
14 15 15 15 15 15 14 13 14 15 16 16 18 21 23 23 24 27 28 30 33 34 33 34 34 32 31 31 32 31 29 31 31 30 34 35 31 32 34 34 36 37
14 14 14 13 12 11 11 12 12 14 16 17 19 22 24 25 27 29 31 32 34 33 31 33 34 35 35 35 35 34 33 34 33 31 32 33 30 31 32 32 33 35
12 13 12 11 9 9 10 11 11 13 16 18 20 22 23 25 27 29 32 33 34 32 31 32 34 35 36 36 36 36 35 36 34 31 32 33 32 33 33 31 31 33
12 12 12 11 10 10 10 11 12 14 16 18 21 23 25 26 27 28 30 30 31 30 31 32 34 36 36 36 36 36 35 35 36 36 36 37 37 38 36 33 32 32
14 14 14 13 13 12 12 13 14 14 16 19 21 23 24 26 27 28 28 29 30 30 31 33 35 36 36 37 37 36 35 34 36 39 41 41 41 41 38 35 34 33
16 16 16 16 16 15 15 15 15 15 16 18 20 21 23 23 24 24 25 26 27 29 32 34 36 36 36 36 36 37 37 36 37 41 45 44 40 39 38 36 35 35
17 17 16 17 17 17 15 15 15 15 16 18 20 20 19 19 19 20 21 22 23 25 27 30 33 35 35 36 36 37 38 38 39 42 45 44 42 40 36 33 33 35
17 17 17 17 17 17 16 15 15 15 16 17 18 18 17 17 18 20 21 21 22 23 24 25 28 29 29 31 33 35 37 37 39 40 39 38 39 39 34 31 32 34
18 18 17 17 17 16 16 15 15 15 16 16 17 17 17 18 20 21 21 22 22 23 23 23 25 25 25 25 27 30 34 36 36 36 35 34 36 37 36 35 36 38
18 18 18 18 17 16 16 16 16 16 16 17 17 17 19 21 23 24 25 25 24 22 22 22 24 25 24 23 24 26 29 33 34 34 35 36 38 38 38 38 39 41
17 18 18 18 17 16 16 16 16 16 17 18 18 18 20 23 26 27 28 28 27 24 22 21 19 21 21 21 22 24 27 30 32 34 36 38 40 40 39 39 40 41
16 18 20 19 16 15 15 16 16 15 15 16 17 18 20 23 26 28 29 28 27 24 22 20 16 16 19 21 23 26 28 29 30 32 35 38 41 43 41 40 40 42
15 18 20 20 18 16 15 16 16 15 14 15 16 18 20 22 25 28 29 28 27 23 20 19 17 16 18 21 24 26 26 25 26 29 31 34 38 41 42 42 41 42
14 16 18 20 19 18 16 17 17 15 14 15 16 18 20 22 24 26 27 27 26 22 18 16 16 17 15 17 21 24 23 22 24 27 27 28 32 35 39 41 40 40
13 15 17 18 19 19 18 18 17 15 14 14 15 17 19 21 22 23 25 26 26 23 19 15 14 15 14 15 19 22 23 23 24 25 25 26 28 31 34 37 37 38
14 15 16 17 18 19 19 18 17 15 14 15 16 17 18 19 20 21 23 25 25 22 18 14 12 13 15 17 20 18 17 21 22 22 24 24 24 27 31 34 34 34
15 15 15 16 17 19 19 18 17 16 15 16 17 17 17 18 19 20 21 23 24 22 18 16 14 16 18 19 21 18 16 19 21 21 21 22 21 22 27 30 30 30
16 16 16 16 17 18 18 17 16 16 16 17 17 17 17 18 19 19 20 22 23 22 21 21 20 20 21 20 20 20 19 20 19 18 19 20 18 17 23 25 25 27
17 16 16 16 16 15 16 16 16 17 16 17 18 18 17 18 19 20 20 21 22 23 23 24 24 23 22 21 20 19 18 18 16 16 18 18 15 13 19 23 23 25
15 13 13 14 14 14 14 14 16 18 17 17 17 18 17 16 18 20 20 20 21 23 23 24 24 24 23 22 23 21 16 14 13 14 14 14 11 10 14 20 21 21
11 11 13 14 15 14 14 14 16 16 17 17 17 17 17 16 15 18 20 21 22 23 22 23 24 26 26 25 26 25 17 12 12 10 9 9 7 6 9 13 15 16
11 12 13 14 15 15 15 15 15 14 16 17 17 17 18 16 13 15 19 22 24 25 23 23 24 26 28 26 26 26 19 11 8 4 1 3 2 4 8 10 10 11
12 13 13 13 14 14 14 16 15 14 14 15 17 18 18 17 13 13 15 20 25 26 25 23 22 25 27 26 26 25 17 9 4 3 3 2 3 7 11 13 13 12
13 13 13 13 13 13 13 14 14 13 11 13 16 17 17 16 14 13 15 19 23 25 25 23 21 23 25 25 24 24 21 17 14 12 9 7 7 9 13 18 17 14
13 13 12 13 14 13 11 11 12 12 11 13 15 16 15 16 15 13 15 18 20 22 22 22 20 20 22 24 23 23 24 25 21 19 17 15 14 14 16 19 19 18
Wind_Direction
336 336 336 330 313 295 280 272 270 272 274 275 274 271 266 264 266 268 269 272 273 273 272 270 268 267 268 271 274 270 262 260 261 261 261 258 255 258 260 260 260 260
348 348 353 353 332 307 288 279 282 286 285 281 279 278 276 274 272 272 272 273 275 277 277 274 272 272 272 272 273 273 271 264 258 259 260 258 256 259 261 261 261 262
357 353 353 355 347 329 309 299 297 297 293 287 283 282 280 280 279 278 275 272 272 274 275 275 274 272 270 269 268 267 268 264 258 259 261 260 258 259 260 262 263 262
355 349 345 343 339 329 316 309 303 295 289 285 282 280 279 279 279 278 277 274 273 272 272 271 271 270 267 264 263 262 262 260 257 260 266 266 264 261 259 259 261 260
346 341 337 333 327 319 311 307 301 294 290 287 285 285 285 285 282 282 282 281 279 276 272 269 267 268 267 263 260 259 260 260 257 261 267 269 267 264 257 254 255 255
340 338 335 330 324 316 309 305 302 299 298 297 295 293 292 291 290 289 288 288 286 281 275 271 268 266 266 264 262 259 261 262 258 259 264 267 267 262 254 249 250 251
337 336 334 330 326 321 313 307 305 304 306 305 303 301 299 298 297 296 295 293 290 284 277 272 268 265 266 266 263 259 259 260 260 260 262 265 264 257 247 243 248 249
341 338 334 331 328 326 324 318 314 314 314 311 307 306 308 308 308 307 305 301 298 292 283 273 267 266 267 266 262 259 259 260 260 260 260 260 258 255 246 239 243 247
345 341 335 333 331 330 332 331 329 328 326 321 318 317 319 319 318 317 315 311 305 297 287 276 270 269 269 265 260 258 259 259 259 257 256 254 254 255 251 246 247 248
346 341 336 335 332 330 333 337 337 337 338 336 334 333 331 329 328 328 326 320 312 302 292 283 275 271 270 266 260 257 257 257 256 255 254 253 253 255 256 254 252 250
345 341 336 334 331 329 330 334 336 337 341 346 347 343 337 335 336 335 331 326 319 311 304 293 280 270 265 263 261 259 257 256 256 255 253 252 251 251 252 253 253 252
344 340 335 331 328 328 329 333 335 333 337 345 349 344 339 338 340 339 336 330 325 318 312 308 292 270 260 258 260 262 261 261 259 258 257 255 253 251 250 250 252 252
348 345 341 336 330 330 332 333 332 328 332 345 350 344 341 341 341 340 338 335 330 322 314 314 306 277 263 261 264 266 267 267 265 263 262 259 258 256 252 251 251 250
356 355 353 350 344 337 333 333 332 329 336 348 351 346 343 343 341 339 339 339 337 331 319 311 305 291 276 270 272 274 270 269 270 269 267 263 260 257 253 251 249 247
2 2 359 356 352 344 334 332 332 331 336 347 352 352 348 343 339 340 342 343 342 338 328 314 304 297 285 271 272 271 266 270 278 276 271 269 266 259 251 248 247 244
358 360 356 352 352 349 340 335 333 330 330 339 348 353 351 344 341 343 347 348 348 344 336 325 313 308 300 282 277 273 266 271 285 283 275 273 271 263 251 244 243 242
348 351 351 347 347 347 344 341 342 340 335 334 338 345 348 347 346 349 352 353 354 350 342 338 332 325 317 303 297 295 277 272 284 289 282 278 274 262 250 243 242 240
340 342 342 341 341 341 342 342 345 350 349 345 343 345 349 352 352 353 357 358 358 354 351 355 349 333 327 316 306 306 295 281 288 294 289 286 281 262 248 243 239 234
334 335 333 335 336 337 340 342 341 347 353 352 351 349 346 350 354 354 357 359 359 358 356 356 350 337 333 327 314 307 298 290 294 298 294 295 292 264 244 237 230 224
328 329 332 339 342 339 342 344 340 341 347 349 351 350 344 348 354 354 355 358 358 358 357 356 352 347 341 336 329 318 301 292 299 301 295 297 297 269 240 227 219 216
326 332 340 349 354 350 346 343 339 340 344 343 345 347 343 346 353 354 356 358 356 356 358 0 1 357 351 344 339 332 311 296 305 308 303 302 295 267 234 218 211 212
336 341 344 346 350 351 348 341 335 339 344 342 343 348 350 349 352 358 2 2 357 354 356 3 7 4 359 355 351 344 331 313 309 303 304 313 295 241 212 202 201 207
339 338 337 337 339 344 349 346 339 336 342 347 349 352 353 350 345 356 5 2 356 356 359 3 9 8 5 6 4 357 347 333 321 296 261 346 329 199 186 173 163 172
337 334 332 333 335 339 348 352 346 338 340 351 356 353 353 353 344 342 352 352 349 353 360 4 9 11 10 14 17 14 10 16 44 107 128 82 109 159 172 166 153 152
333 333 331 331 331 336 347 354 353 348 345 349 354 353 353 357 355 341 337 340 341 346 355 3 9 14 14 17 23 25 27 45 77 105 114 108 113 131 149 154 153 151
333 333 331 331 332 333 341 353 358 359 356 349 350 354 353 355 3 1 351 348 343 340 350 1 7 13 16 17 21 25 29 38 57 81 92 94 92 94 105 117 118 118
Height
1517 1516 1514 1512 1510 1509 1509 1509 1508 1508 1508 1509 1510 1511 1512 1512 1512 1511 1511 1511 1510 1510 1509 1509 1508 1506 1506 1508 1508 1508 1509 1510 1510 1512 1513 1513 1515 1516 1516 1518 1518 1518
1516 1514 1513 1511 1509 1508 1508 1508 1507 1507 1507 1507 1508 1509 1509 1509 1508 1507 1507 1507 1506 1505 1504 1503 1503 1503 1503 1505 1505 1506 1506 1506 1507 1508 1508 1509 1510 1511 1511 1512 1513 1513
1515 1513 1512 1511 1509 1508 1507 1507 1506 1505 1505 1505 1506 1506 1505 1505 1504 1503 1503 1503 1502 1501 1500 1498 1498 1499 1500 1501 1502 1503 1503 1503 1503 1504 1504 1504 1505 1506 1506 1508 1508 1508
1515 1513 1511 1510 1508 1507 1506 1505 1505 1504 1504 1504 1503 1503 1502 1501 1500 1498 1498 1497 1497 1498 1497 1495 1494 1495 1495 1497 1498 1499 1499 1499 1498 1499 1500 1500 1501 1502 1502 1502 1503 1503
1514 1512 1510 1509 1507 1506 1505 1504 1503 1503 1502 1501 1500 1499 1498 1497 1496 1495 1494 1493 1493 1494 1493 1490 1489 1489 1490 1491 1492 1493 1494 1494 1494 1494 1495 1495 1496 1497 1497 1498 1498 1499
1512 1511 1509 1508 1506 1504 1503 1502 1501 1500 1499 1498 1497 1495 1494 1493 1492 1491 1490 1490 1489 1489 1488 1485 1484 1484 1485 1486 1487 1487 1488 1489 1489 1490 1489 1489 1490 1491 1492 1493 1493 1494
1511 1509 1507 1506 1504 1503 1501 1500 1498 1497 1496 1495 1493 1492 1491 1489 1488 1487 1487 1486 1485 1484 1482 1480 1479 1478 1480 1482 1483 1482 1483 1484 1485 1484 1484 1484 1484 1484 1486 1488 1489 1489
1509 1508 1506 1504 1503 1501 1499 1498 1496 1495 1494 1492 1491 1490 1489 1487 1486 1485 1484 1483 1482 1480 1478 1475 1473 1473 1474 1475 1476 1477 1478 1479 1480 1479 1478 1479 1479 1479 1481 1483 1484 1485
1507 1506 1504 1503 1501 1499 1497 1496 1494 1493 1491 1490 1488 1487 1487 1486 1484 1482 1481 1480 1478 1476 1474 1472 1470 1469 1468 1469 1470 1471 1472 1473 1474 1473 1473 1473 1473 1474 1476 1478 1480 1481
1506 1504 1503 1501 1499 1498 1496 1494 1493 1491 1489 1488 1486 1485 1484 1483 1482 1480 1478 1476 1474 1472 1470 1468 1466 1465 1465 1465 1465 1466 1466 1467 1468 1469 1469 1468 1468 1469 1471 1473 1474 1476
1505 1503 1501 1500 1498 1496 1495 1493 1491 1490 1488 1486 1484 1483 1482 1481 1479 1477 1474 1472 1470 1468 1466 1464 1462 1462 1461 1461 1461 1461 1461 1461 1463 1463 1464 1464 1463 1464 1466 1467 1468 1469
1504 1502 1500 1498 1496 1495 1493 1492 1490 1488 1486 1484 1482 1481 1480 1478 1476 1474 1472 1469 1466 1464 1462 1460 1458 1458 1458 1458 1458 1458 1457 1457 1457 1458 1458 1458 1457 1458 1459 1460 1461 1462
1503 1501 1499 1497 1495 1494 1492 1491 1489 1487 1485 1483 1481 1480 1479 1477 1475 1472 1470 1467 1464 1461 1459 1457 1455 1455 1455 1454 1454 1454 1453 1452 1452 1452 1452 1451 1450 1450 1451 1452 1453 1454
1502 1501 1498 1496 1494 1493 1492 1490 1489 1487 1485 1483 1481 1480 1478 1476 1473 1471 1467 1464 1461 1459 1457 1455 1453 1452 1452 1451 1451 1450 1449 1448 1447 1446 1445 1444 1443 1442 1443 1444 1445 1446
1502 1500 1498 1496 1494 1492 1491 1490 1488 1487 1485 1483 1481 1479 1477 1475 1473 1470 1466 1462 1459 1457 1455 1453 1452 1451 1449 1449 1448 1446 1445 1444 1442 1440 1439 1437 1435 1434 1434 1435 1436 1438
1500 1499 1497 1496 1494 1492 1490 1489 1487 1485 1483 1482 1480 1478 1476 1474 1472 1469 1465 1462 1458 1455 1453 1452 1450 1449 1447 1446 1444 1442 1441 1439 1437 1434 1432 1430 1428 1427 1426 1427 1428 1431
1499 1498 1496 1495 1493 1491 1489 1488 1486 1484 1481 1480 1478 1476 1475 1473 1470 1468 1464 1461 1458 1455 1452 1450 1449 1448 1445 1443 1441 1438 1436 1435 1432 1429 1427 1425 1423 1421 1420 1421 1423 1425
1498 1497 1495 1494 1492 1490 1489 1487 1485 1483 1480 1478 1476 1475 1473 1471 1469 1466 1463 1461 1457 1454 1451 1449 1447 1445 1443 1441 1438 1435 1433 1430 1427 1425 1422 1420 1418 1416 1416 1417 1419 1420
1497 1495 1494 1493 1491 1489 1487 1486 1485 1482 1480 1477 1475 1473 1471 1469 1467 1465 1462 1460 1457 1454 1451 1448 1445 1443 1440 1438 1435 1432 1430 1427 1424 1421 1419 1416 1415 1413 1413 1414 1415 1417
1496 1494 1493 1491 1489 1487 1486 1485 1484 1482 1479 1477 1474 1472 1470 1468 1466 1464 1462 1460 1457 1454 1451 1447 1445 1442 1438 1436 1432 1429 1426 1423 1421 1418 1416 1414 1412 1411 1411 1412 1413 1414
1494 1493 1492 1490 1488 1486 1485 1484 1483 1481 1478 1476 1473 1471 1469 1467 1465 1463 1462 1460 1457 1454 1451 1448 1445 1441 1438 1434 1430 1426 1423 1421 1419 1417 1415 1412 1411 1410 1410 1411 1412 1413
1493 1492 1490 1489 1487 1485 1483 1482 1481 1479 1477 1475 1473 1471 1469 1466 1465 1464 1462 1460 1458 1455 1452 1449 1445 1441 1437 1433 1429 1425 1422 1419 1417 1415 1414 1412 1411 1411 1410 1411 1411 1412
1492 1491 1489 1488 1486 1484 1482 1481 1479 1478 1477 1474 1472 1470 1468 1466 1465 1463 1462 1460 1458 1455 1452 1448 1445 1441 1438 1434 1430 1425 1422 1419 1417 1415 1414 1413 1412 1411 1411 1411 1412 1412
1491 1489 1488 1486 1485 1483 1481 1480 1478 1477 1476 1474 1472 1470 1468 1466 1464 1463 1462 1460 1458 1455 1452 1449 1446 1443 1439 1436 1432 1427 1423 1420 1417 1416 1416 1415 1414 1412 1412 1412 1413 1414
1490 1488 1486 1485 1483 1482 1481 1479 1477 1476 1475 1474 1472 1470 1468 1466 1464 1463 1462 1460 1458 1456 1453 1450 1448 1444 1442 1439 1435 1431 1428 1423 1419 1418 1418 1417 1416 1415 1413 1413 1414 1415
1489 1487 1485 1484 1483 1481 1480 1479 1477 1476 1475 1473 1472 1470 1468 1466 1464 1463 1462 1461 1458 1456 1454 1451 1449 1446 1444 1441 1438 1435 1432 1427 1423 1421 1420 1420 1418 1417 1416 1415 1416 1417